UFO 4 (USA 108)

Last updated on Sun Dec 14 2025 00:02:48 GMT+0000 (Coordinated Universal Time)

1 23467U 95003A 25347.25580390 -.00000016 00000+0 00000+0 0 9998 2 23467 9.6638 13.8335 0003501 239.0424 93.6097 1.00270522113088
UTC large
Height (km)
Speed (km/s)
/
Latitude / Longitude
Inclination (degrees)
Orbital Period (minutes)
Azimuth
Elevation
Range (km)
Doppler Factor

Next 0 passes for location: London (51.5072 / 0.1276)

Sorry there are no passes over London.